Abingdon, VA

2:29 PM EST on February 09, 2016 (GMT -0500)
Virginia Highlands

Weather History for KVJI - November, 2011

Change the Weather History Date:

Wednesday, November 23, 2011

  Actual Average (KTRI) Record (KTRI)
Temperature  
Mean Temperature 50 °F 44 °F  
Max Temperature 59 °F 56 °F 73 °F (1983)
Min Temperature 41 °F 33 °F 13 °F (1937)
Degree Days  
Heating Degree Days 14 21  
Month to date heating degree days 395  
Since 1 July heating degree days 730  
Cooling Degree Days 0 0  
Month to date cooling degree days 0  
Year to date cooling degree days 980  
Moisture  
Dew Point 40 °F    
Average Humidity 71    
Maximum Humidity 88    
Minimum Humidity 54    
Precipitation  
Precipitation 0.00 in 0.11 in 1.23 in (1961)
Month to date precipitation 2.30  
Year to date precipitation 36.84  
Snow  
Snow 0.00 in 0.00 in - ()
Month to date snowfall 0.1  
Since 1 July snowfall 0.2  
Since 1 September snowfall 0.2  
Snow Depth -    
Sea Level Pressure  
Sea Level Pressure 30.04 in    
Wind  
Wind Speed 10 mph (NW)    
Max Wind Speed 17 mph    
Max Gust Speed 25 mph    
Visibility 10 miles    
Events Rain    
T = Trace of Precipitation, MM = Missing Value Source: NWS Daily Summary

Daily Weather History Graph

Daily Weather History Graph

Search for Another Location

Airport or City:

Trip Planner

Search our weather history database for the weather conditions in past years. The results will help you decide how hot, cold, wet, or windy it might be!

Date:

Astronomy

Nov. 23, 2011 Rise Set
Actual Time 7:13 AM EST 5:14 PM EST
Civil Twilight 6:45 AM EST 5:42 PM EST
Nautical Twilight 6:14 AM EST 6:14 PM EST
Astronomical Twilight 5:43 AM EST 6:45 PM EST
Moon 5:17 AM EST (11/23) 3:54 PM EST (11/23)
Length of Visible Light 10h 56m
Length of Day
10h 00m
Waning Crescent, 4% of the Moon is Illuminated
Nov 23
Waning Crescent
Nov 25
New
Dec 2
First Quarter
Dec 10
Full
Dec 17
Last Quarter

Hourly Weather History & Observations

Time (EST) Temp. Windchill Dew Point Humidity Pressure Visibility Wind Dir Wind Speed Gust Speed Precip Events Conditions
12:15 AM 59.0 °F - 55.4 °F 88% 29.88 in 10.0 mi West 10.4 mph - N/A Rain Rain
12:35 AM 59.0 °F - 55.4 °F 88% 29.89 in 10.0 mi West 10.4 mph 16.1 mph N/A   Overcast
1:15 AM 57.2 °F - 53.6 °F 88% 29.86 in 10.0 mi West 10.4 mph - N/A   Overcast
1:35 AM 57.2 °F - 53.6 °F 88% 29.86 in 10.0 mi West 11.5 mph 16.1 mph N/A   Overcast
1:55 AM 57.2 °F - 53.6 °F 88% 29.86 in 10.0 mi West 10.4 mph - N/A   Overcast
2:15 AM 57.2 °F - 53.6 °F 88% 29.85 in 10.0 mi West 11.5 mph 17.3 mph N/A   Overcast
2:55 AM 57.2 °F - 53.6 °F 88% 29.84 in 10.0 mi West 16.1 mph 21.9 mph N/A   Overcast
3:15 AM 59.0 °F - 53.6 °F 82% 29.83 in 10.0 mi West 15.0 mph 19.6 mph N/A   Overcast
3:35 AM 57.2 °F - 51.8 °F 82% 29.83 in 10.0 mi West 12.7 mph 20.7 mph N/A   Overcast
3:55 AM 57.2 °F - 53.6 °F 88% 29.82 in 10.0 mi West 10.4 mph 18.4 mph N/A   Overcast
4:15 AM 57.2 °F - 51.8 °F 82% 29.82 in 10.0 mi West 13.8 mph 20.7 mph N/A   Overcast
4:35 AM 57.2 °F - 53.6 °F 88% 29.81 in 10.0 mi West 11.5 mph 18.4 mph N/A   Overcast
4:55 AM 57.2 °F - 53.6 °F 88% 29.82 in 10.0 mi West 17.3 mph 20.7 mph N/A   Overcast
5:15 AM 57.2 °F - 51.8 °F 82% 29.83 in 10.0 mi NW 10.4 mph 23.0 mph N/A Rain Light Rain
5:35 AM 57.2 °F - 50.0 °F 77% 29.85 in 10.0 mi NW 11.5 mph 23.0 mph N/A   Overcast
5:55 AM 57.2 °F - 46.4 °F 67% 29.86 in 10.0 mi WNW 10.4 mph 18.4 mph N/A   Overcast
6:15 AM 55.4 °F - 46.4 °F 72% 29.87 in 10.0 mi WNW 10.4 mph 19.6 mph N/A   Overcast
6:35 AM 55.4 °F - 46.4 °F 72% 29.88 in 10.0 mi NW 13.8 mph 19.6 mph N/A   Overcast
6:55 AM 53.6 °F - 44.6 °F 72% 29.89 in 10.0 mi WNW 13.8 mph 18.4 mph N/A   Overcast
7:35 AM 53.6 °F - 44.6 °F 72% 29.93 in 10.0 mi NW 12.7 mph 23.0 mph N/A   Overcast
7:55 AM 51.8 °F - 44.6 °F 76% 29.94 in 7.0 mi NNW 12.7 mph 18.4 mph N/A   Overcast
8:15 AM 51.8 °F - 42.8 °F 71% 29.95 in 10.0 mi NNW 12.7 mph 18.4 mph N/A   Overcast
8:35 AM 50.0 °F - 41.0 °F 71% 29.97 in 10.0 mi NNW 16.1 mph 23.0 mph N/A   Overcast
8:55 AM 50.0 °F - 39.2 °F 66% 29.99 in 10.0 mi NW 9.2 mph 19.6 mph N/A   Overcast
9:35 AM 46.4 °F 40.4 °F 37.4 °F 71% 30.01 in 10.0 mi NNW 13.8 mph 18.4 mph N/A   Overcast
9:55 AM 46.4 °F 39.8 °F 37.4 °F 71% 30.02 in 10.0 mi NW 16.1 mph 21.9 mph N/A   Overcast
10:15 AM 46.4 °F 41.9 °F 37.4 °F 71% 30.03 in 10.0 mi NW 9.2 mph 19.6 mph N/A   Overcast
10:35 AM 44.6 °F 37.2 °F 37.4 °F 76% 30.04 in 7.0 mi NNW 17.3 mph 25.3 mph N/A   Overcast
10:55 AM 44.6 °F 37.2 °F 37.4 °F 76% 30.05 in 4.0 mi NNW 17.3 mph 25.3 mph N/A   Haze
11:15 AM 44.6 °F 37.8 °F 37.4 °F 76% 30.05 in 7.0 mi NNW 15.0 mph 25.3 mph N/A   Overcast
11:35 AM 44.6 °F 38.8 °F 37.4 °F 76% 30.06 in 10.0 mi North 11.5 mph 21.9 mph N/A   Overcast
11:55 AM 44.6 °F 38.4 °F 37.4 °F 76% 30.06 in 10.0 mi NNW 12.7 mph 20.7 mph N/A   Overcast
12:15 PM 46.4 °F 41.5 °F 35.6 °F 66% 30.06 in 10.0 mi NNW 10.4 mph - N/A   Overcast
12:35 PM 46.4 °F 41.5 °F 35.6 °F 66% 30.06 in 10.0 mi NNW 10.4 mph 21.9 mph N/A   Overcast
12:55 PM 46.4 °F 41.9 °F 35.6 °F 66% 30.07 in 10.0 mi NNW 9.2 mph - N/A   Overcast
1:15 PM 46.4 °F 41.9 °F 35.6 °F 66% 30.08 in 10.0 mi North 9.2 mph 20.7 mph N/A   Overcast
1:35 PM 46.4 °F 40.4 °F 35.6 °F 66% 30.08 in 10.0 mi NNW 13.8 mph 20.7 mph N/A   Overcast
1:55 PM 46.4 °F 40.7 °F 33.8 °F 62% 30.09 in 10.0 mi NNW 12.7 mph 20.7 mph N/A   Overcast
2:15 PM 46.4 °F 43.5 °F 33.8 °F 62% 30.10 in 10.0 mi North 5.8 mph - N/A   Overcast
2:35 PM 46.4 °F 42.9 °F 32.0 °F 57% 30.10 in 10.0 mi NNW 6.9 mph - N/A   Overcast
2:55 PM 48.2 °F - 32.0 °F 54% 30.10 in 10.0 mi North 6.9 mph 17.3 mph N/A   Mostly Cloudy
3:15 PM 48.2 °F - 32.0 °F 54% 30.10 in 10.0 mi North 9.2 mph - N/A   Scattered Clouds
3:35 PM 48.2 °F - 32.0 °F 54% 30.11 in 10.0 mi North 3.5 mph 16.1 mph N/A   Mostly Cloudy
3:55 PM 48.2 °F - 32.0 °F 54% 30.12 in 10.0 mi North 4.6 mph - N/A   Mostly Cloudy
4:15 PM 48.2 °F - 32.0 °F 54% 30.12 in 10.0 mi North 3.5 mph - N/A   Overcast
4:35 PM 48.2 °F - 32.0 °F 54% 30.13 in 10.0 mi North 3.5 mph - N/A   Overcast
4:55 PM 46.4 °F - 32.0 °F 57% 30.14 in 10.0 mi Calm Calm - N/A   Overcast
5:15 PM 46.4 °F 45.2 °F 33.8 °F 62% 30.15 in 10.0 mi NNW 3.5 mph - N/A   Overcast
5:35 PM 46.4 °F 43.5 °F 32.0 °F 57% 30.16 in 10.0 mi North 5.8 mph - N/A   Overcast
5:55 PM 46.4 °F - 32.0 °F 57% 30.16 in 10.0 mi Calm Calm - N/A   Overcast
7:15 PM 46.4 °F 41.9 °F 33.8 °F 62% 30.20 in 10.0 mi North 9.2 mph - N/A   Overcast
7:35 PM 46.4 °F 41.5 °F 33.8 °F 62% 30.21 in 10.0 mi North 10.4 mph - N/A   Mostly Cloudy
8:15 PM 46.4 °F 42.4 °F 33.8 °F 62% 30.22 in 10.0 mi North 8.1 mph - N/A   Scattered Clouds
8:35 PM 46.4 °F 43.5 °F 33.8 °F 62% 30.22 in 10.0 mi North 5.8 mph - N/A   Clear
8:55 PM 44.6 °F 43.1 °F 33.8 °F 66% 30.22 in 10.0 mi NNE 3.5 mph - N/A   Clear
9:15 PM 44.6 °F - 33.8 °F 66% 30.23 in 10.0 mi Calm Calm - N/A   Clear
9:35 PM 42.8 °F - 33.8 °F 70% 30.23 in 10.0 mi Calm Calm - N/A   Clear
9:55 PM 42.8 °F - 33.8 °F 70% 30.24 in 10.0 mi Calm Calm - N/A   Clear
10:15 PM 42.8 °F 40.1 °F 33.8 °F 70% 30.25 in 10.0 mi NW 4.6 mph - N/A   Clear
10:35 PM 42.8 °F 38.6 °F 33.8 °F 70% 30.25 in 10.0 mi NW 6.9 mph - N/A   Clear
10:55 PM 42.8 °F 38.6 °F 33.8 °F 70% 30.25 in 10.0 mi North 6.9 mph - N/A   Clear
11:15 PM 42.8 °F 38.6 °F 33.8 °F 70% 30.25 in 10.0 mi NNW 6.9 mph - N/A   Clear
11:35 PM 42.8 °F - 33.8 °F 70% 30.25 in 10.0 mi Calm Calm - N/A   Clear
11:55 PM 41.0 °F - 33.8 °F 76% 30.26 in 10.0 mi Calm Calm - N/A   Clear